TIANMU-1 05

Last updated on Thu Jul 03 2025 00:02:22 GMT+0000 (Coordinated Universal Time)

1 55975U 23039C 25183.60551794 .00008093 00000+0 23597-3 0 9992 2 55975 97.5001 342.3019 0002179 312.6404 47.4656 15.35632909126976
UTC large
Height (km)
Speed (km/s)
/
Latitude / Longitude
Inclination (degrees)
Orbital Period (minutes)
Azimuth
Elevation
Range (km)
Doppler Factor

Next 0 passes for location: London (51.5072 / 0.1276)

Sorry there are no passes over London.